Wind_Speed
4 3 3 3 3 2 1 1 1 2 2 3 4 5 7 8 9 9 10 10 11 11 11 12 12 12 13 13 13 13 14 14 14 15 15 15 16 16 17 17 17 17 18 18 18 18 18 18 18
4 4 3 3 3 2 2 1 1 1 2 3 4 5 6 8 9 9 10 10 11 11 11 11 12 13 13 13 14 14 15 15 15 16 16 16 17 17 17 17 17 17 17 17 17 17 18 18 18
3 3 3 3 2 2 2 1 1 2 2 3 5 6 7 8 9 10 10 11 12 12 12 12 13 13 14 15 15 15 15 16 16 16 16 16 17 17 17 17 17 17 17 17 17 18 18 18 18
2 2 2 2 1 1 2 2 2 3 3 4 5 7 8 9 10 11 11 12 13 13 13 14 14 14 15 15 16 16 16 17 17 16 16 16 17 17 17 18 18 18 18 18 18 18 18 18 18
1 1 1 1 2 3 3 3 3 4 4 5 6 8 10 10 10 11 12 13 14 14 14 15 15 15 15 16 16 16 17 17 17 17 17 18 18 18 18 18 18 18 18 18 18 18 18 19 19
3 2 2 3 3 4 4 4 5 5 6 7 8 9 11 11 11 12 13 14 15 15 15 16 16 16 16 16 17 17 17 18 18 19 19 19 20 20 19 19 19 19 19 19 19 19 19 19 19
5 4 4 4 5 5 5 6 6 7 8 9 9 10 12 12 13 13 13 14 15 16 16 16 17 17 17 17 18 18 19 19 20 20 20 21 21 21 21 21 20 20 21 21 21 21 20 20 20
7 6 6 6 7 7 7 8 8 9 10 10 11 12 13 14 14 14 14 15 15 16 16 16 17 18 18 19 19 20 20 20 21 22 22 22 22 22 22 22 22 22 22 23 23 23 23 23 23
9 8 8 8 8 9 10 10 10 10 11 12 12 13 14 15 15 16 16 16 16 16 16 17 18 18 19 20 20 21 21 21 22 23 23 24 24 24 24 25 25 25 25 25 25 26 26 26 26
10 11 10 10 10 11 12 12 12 12 13 13 14 15 15 16 16 16 16 17 17 17 17 18 18 19 20 21 21 22 22 22 23 24 25 25 26 27 27 27 27 28 28 28 29 29 29 29 30
12 12 12 12 12 13 14 14 14 14 14 15 16 17 17 17 17 17 17 17 17 17 18 18 19 20 20 21 22 23 24 24 25 26 26 27 28 29 29 30 30 31 31 32 32 33 33 33 34
12 13 13 13 13 14 15 16 16 16 16 16 17 18 18 18 18 18 19 18 18 18 18 19 20 20 21 22 23 24 25 26 27 27 28 29 30 31 32 32 33 34 34 35 35 36 36 37 37
12 13 13 14 14 15 16 16 17 17 17 17 18 18 18 19 19 19 19 19 19 19 19 19 20 21 22 23 24 25 26 27 28 28 29 30 31 32 33 34 35 36 37 37 38 38 39 40 40
12 13 13 13 14 15 16 16 17 17 18 18 18 18 18 18 18 18 18 18 19 19 19 20 20 21 22 23 24 25 26 27 28 29 30 31 32 33 34 35 36 37 38 39 40 40 41 42 43
12 13 13 14 14 16 16 17 17 17 18 18 18 18 17 17 17 17 18 18 19 19 20 20 21 22 23 24 25 26 26 27 28 29 30 31 32 33 35 36 37 38 39 40 41 42 43 44 45
12 13 14 14 15 16 17 18 17 17 18 18 18 18 17 17 17 18 18 19 19 20 20 21 22 22 23 24 25 25 26 27 28 29 30 32 33 34 35 36 37 39 40 41 42 43 44 45 46
12 13 14 14 15 16 17 18 17 17 18 18 18 18 18 18 18 19 19 19 20 20 20 21 22 22 23 24 24 25 27 28 29 30 32 33 34 35 36 37 38 40 41 42 43 44 46 47 48
12 13 14 15 15 16 17 18 18 18 18 19 19 18 18 18 19 19 19 20 20 20 21 21 22 23 24 24 25 26 27 29 30 31 33 34 35 36 37 38 40 41 43 44 45 47 48 49 50
13 14 15 15 15 16 17 18 18 18 18 19 19 19 19 19 19 20 20 21 21 21 21 22 23 24 24 25 26 27 28 29 30 32 33 35 36 38 39 40 42 43 44 46 48 49 50 52 53
14 14 15 15 15 16 17 18 18 18 19 19 19 19 20 20 20 21 22 22 22 22 23 23 24 24 25 26 27 28 29 30 32 33 35 37 38 40 41 43 44 46 47 48 50 52 53 54 56
15 15 15 15 15 16 17 18 18 19 19 19 20 20 21 21 22 22 23 23 24 24 24 24 25 25 26 27 28 30 31 33 35 37 38 40 41 43 44 46 47 49 50 52 54 56 57 58 60
15 15 15 16 16 16 17 18 19 19 19 20 21 21 22 22 22 23 24 24 25 25 26 26 27 28 29 30 31 32 34 35 37 38 40 42 44 45 47 49 51 53 54 56 58 60 61 63 64
16 16 16 16 17 17 18 19 19 20 21 21 22 22 22 23 23 24 25 26 26 27 28 28 29 30 31 32 33 35 36 38 39 41 43 45 47 49 51 53 55 57 59 60 62 64 67 68 70
17 17 17 17 17 18 18 20 20 20 21 22 22 23 24 24 25 26 27 27 28 29 30 31 31 32 33 34 36 37 39 41 43 45 46 49 51 53 56 58 60 62 64 66 68 70 72 74 76
17 17 18 18 18 18 19 21 21 21 22 23 24 24 25 26 27 28 28 29 30 31 32 33 33 34 35 37 39 41 43 44 47 49 51 53 55 58 60 62 64 67 69 71 73 75 77 79 81
18 18 19 20 20 20 21 22 22 22 23 24 25 26 27 28 29 29 30 31 33 34 34 35 36 37 39 41 43 45 47 49 51 54 56 58 60 62 64 67 69 71 74 76 78 80 82 83 84
18 19 19 21 22 22 22 22 23 24 25 26 27 28 29 30 31 31 33 34 36 36 37 38 39 41 43 45 47 49 51 54 56 59 61 63 65 67 69 71 74 76 79 81 82 82 82 83 83
20 20 21 22 24 24 24 23 25 26 27 27 28 29 30 31 32 34 36 37 38 39 40 42 44 45 47 49 51 54 56 59 61 63 66 68 70 72 74 76 78 80 81 82 82 82 82 83 83
21 22 23 25 26 27 27 25 27 28 29 29 30 31 32 33 34 36 38 39 40 42 43 45 47 49 51 53 56 58 61 63 66 68 70 72 73 75 77 79 80 81 81 81 81 81 81 81 81
23 23 25 26 27 28 29 28 28 30 31 32 33 34 34 36 37 39 40 42 43 44 46 48 50 53 55 57 60 62 65 67 69 71 73 75 77 78 80 81 81 80 79 79 79 79 79 79 79
Wind_Direction
49 55 60 70 77 74 59 17 277 256 256 256 259 259 255 255 258 262 262 263 263 264 266 265 263 261 259 258 258 257 257 258 259 260 261 261 261 260 260 260 259 258 257 256 256 256 256 256 256
56 63 68 70 71 64 53 33 351 283 274 270 269 268 266 263 262 263 265 266 266 267 266 266 264 263 261 261 261 260 260 261 263 263 264 264 263 262 262 261 261 260 258 256 255 255 256 256 257
59 64 72 71 68 56 38 13 341 311 291 283 280 277 274 270 268 267 268 270 270 270 269 268 268 266 264 263 263 263 263 264 265 265 265 265 264 263 263 263 262 261 260 259 257 257 257 257 257
47 60 60 64 40 18 358 346 336 317 304 292 286 282 277 275 272 270 270 271 271 271 271 271 270 268 266 265 264 264 264 264 265 265 265 265 265 265 265 264 263 262 261 260 259 259 259 259 259
317 349 1 341 330 337 339 336 327 318 309 300 291 285 282 280 276 272 271 271 271 272 272 272 271 269 267 266 264 263 263 263 263 264 264 265 265 265 264 264 263 262 262 261 261 261 260 261 261
271 286 284 299 308 322 329 327 321 312 306 301 296 289 286 283 279 276 274 274 273 273 272 272 271 270 268 266 265 264 263 262 263 264 265 265 265 265 264 263 263 262 262 262 262 262 262 262 263
261 275 277 288 297 305 313 315 312 308 304 301 295 289 286 285 283 281 279 277 276 275 274 272 270 269 267 266 266 265 264 263 263 264 265 265 265 265 264 263 263 262 262 263 263 262 262 263 263
261 269 274 285 292 295 298 302 304 302 299 296 292 287 285 285 284 282 282 281 280 279 277 274 271 269 267 267 266 266 266 266 265 265 265 265 265 265 264 264 263 263 263 263 264 264 264 264 264
261 267 274 281 286 290 293 296 299 297 295 294 293 289 285 285 286 285 285 284 282 280 278 276 274 272 271 269 269 268 268 267 267 266 266 266 266 266 266 265 265 265 264 265 265 265 266 266 266
262 268 274 278 282 286 290 293 296 295 295 294 291 289 287 286 286 286 286 286 284 282 280 277 275 274 273 271 271 270 270 269 269 268 267 267 267 267 267 267 267 266 266 267 267 267 267 267 267
266 270 275 279 281 284 287 290 292 294 294 294 293 292 291 289 288 287 287 287 285 283 281 279 277 275 274 272 272 271 271 271 270 270 269 269 269 269 269 269 269 268 268 268 268 268 268 268 268
270 274 278 282 283 283 285 287 289 291 294 294 293 293 292 292 291 290 289 288 286 284 282 281 278 276 275 273 272 272 272 272 272 272 272 271 271 270 271 270 270 270 270 270 270 270 270 269 269
273 277 280 283 284 285 286 287 290 293 293 293 293 293 292 292 291 291 290 290 289 287 285 283 280 278 277 276 275 274 274 274 274 274 274 274 273 273 273 273 272 272 271 271 271 271 271 271 271
277 280 282 285 287 288 289 291 293 293 294 293 293 293 293 293 293 293 293 292 291 290 288 285 282 281 280 278 277 276 276 275 275 275 275 275 275 275 275 274 274 274 273 273 273 273 272 272 272
279 283 285 287 289 290 292 292 294 295 294 295 295 295 295 295 296 297 296 296 294 293 291 288 286 284 283 282 280 279 279 278 278 277 277 277 277 277 277 277 277 276 276 276 275 274 273 273 273
281 285 288 290 290 291 292 293 296 296 297 298 298 297 297 298 298 298 297 296 295 294 293 292 290 288 287 286 284 283 282 282 281 281 280 280 280 280 280 280 280 279 279 278 278 277 276 275 274
281 286 290 292 293 293 294 294 298 298 299 300 300 300 300 299 298 298 298 297 296 296 295 294 292 291 289 288 286 286 285 285 285 284 284 284 283 283 283 282 281 281 280 280 279 278 277 276 275
280 286 291 293 294 294 295 296 299 300 301 301 301 301 302 301 301 300 299 299 298 297 296 295 294 293 292 290 289 289 288 288 288 288 288 287 287 286 286 285 284 283 282 282 281 280 279 278 277
278 285 289 292 293 294 295 296 299 300 300 301 301 301 301 301 301 300 300 299 298 297 297 296 294 293 293 292 292 291 291 291 291 291 291 290 290 289 288 287 286 286 285 284 283 283 281 280 279
278 284 288 290 292 294 295 296 297 299 300 300 300 300 300 300 300 299 298 299 298 297 297 296 295 294 294 293 293 294 294 293 293 293 293 293 292 291 291 290 289 288 287 286 286 284 283 283 282
277 282 287 290 292 293 294 295 296 298 299 299 298 299 299 299 298 298 298 298 297 297 297 296 296 295 295 295 295 295 295 295 294 294 294 294 293 293 292 291 290 290 289 288 287 286 285 284 283
276 280 284 288 290 292 294 294 296 297 298 298 298 298 299 298 297 297 297 296 296 297 297 297 297 296 296 296 296 296 296 296 296 295 295 295 294 294 293 292 292 291 290 289 288 287 286 286 285
276 280 283 286 289 290 292 292 295 297 297 297 297 297 297 297 296 296 295 295 295 296 297 297 296 296 296 296 296 296 296 295 295 295 295 295 294 294 293 293 292 291 291 290 289 288 287 286 285
276 280 283 285 288 290 291 292 294 297 296 296 296 296 296 296 296 295 295 294 294 295 296 296 296 295 295 296 297 297 297 297 297 297 297 296 296 295 294 294 293 292 291 291 290 289 288 287 286
276 280 283 286 288 290 292 292 294 295 295 295 295 296 296 296 296 295 294 294 295 296 296 296 296 296 296 297 297 298 298 298 298 298 297 297 296 295 294 294 293 292 292 291 291 290 289 287 286
275 279 283 287 291 292 293 294 295 295 295 295 295 295 295 295 295 295 294 295 296 296 297 297 296 297 297 297 298 298 298 299 299 299 298 297 297 296 295 294 293 293 293 292 291 290 289 288 287
274 278 282 287 290 293 294 295 293 294 295 295 295 295 294 294 294 294 295 296 296 296 296 297 297 297 298 299 299 300 300 300 300 300 300 299 298 297 297 296 295 295 294 294 293 291 290 289 287
275 280 283 287 292 294 295 295 296 296 296 295 295 295 295 294 294 295 295 296 296 296 297 297 298 298 299 300 301 301 302 302 302 301 301 301 300 299 299 298 298 297 296 295 294 293 292 291 289
277 281 284 286 290 294 295 297 297 297 297 296 296 296 296 296 296 295 296 296 296 297 297 298 299 299 301 301 302 303 303 303 303 303 302 302 301 301 301 300 299 299 298 297 296 295 294 293 292
278 282 284 288 291 292 294 298 297 296 296 296 297 297 297 297 297 296 296 297 297 298 299 300 300 301 302 303 303 304 304 304 304 304 304 303 303 303 302 302 301 300 299 298 298 297 296 295 293
Height
5876 5876 5876 5877 5877 5877 5876 5876 5875 5875 5875 5875 5875 5875 5875 5875 5875 5877 5874 5873 5872 5872 5872 5871 5871 5871 5871 5871 5871 5871 5871 5871 5871 5871 5871 5871 5871 5871 5871 5870 5870 5870 5870 5869 5869 5869 5868 5868 5868
5876 5876 5877 5877 5877 5876 5876 5875 5875 5874 5874 5874 5874 5873 5873 5873 5873 5872 5872 5871 5871 5870 5870 5870 5870 5869 5869 5869 5869 5869 5869 5869 5869 5869 5869 5869 5868 5868 5868 5868 5867 5867 5867 5866 5866 5866 5866 5865 5865
5877 5876 5877 5877 5876 5876 5876 5875 5874 5874 5873 5873 5873 5872 5872 5872 5871 5871 5870 5870 5869 5868 5868 5868 5868 5867 5867 5867 5867 5867 5867 5867 5866 5866 5866 5866 5865 5865 5865 5865 5864 5864 5863 5863 5863 5863 5863 5862 5862
5877 5877 5877 5877 5876 5876 5875 5874 5873 5873 5872 5872 5872 5871 5870 5870 5870 5869 5868 5867 5867 5866 5866 5866 5865 5865 5865 5864 5864 5864 5864 5864 5864 5863 5863 5863 5862 5862 5862 5861 5861 5861 5860 5860 5860 5860 5859 5859 5859
5877 5877 5877 5876 5875 5875 5874 5873 5873 5872 5871 5871 5870 5869 5868 5868 5867 5867 5866 5865 5865 5864 5864 5863 5863 5862 5862 5862 5861 5861 5861 5861 5861 5860 5860 5860 5859 5859 5859 5858 5858 5857 5857 5857 5856 5856 5856 5855 5855
5876 5876 5876 5875 5875 5874 5873 5873 5872 5871 5870 5869 5868 5867 5866 5866 5865 5864 5864 5863 5862 5862 5861 5861 5860 5859 5859 5859 5858 5858 5858 5858 5857 5857 5857 5856 5856 5856 5855 5855 5854 5854 5853 5853 5853 5852 5852 5852 5852
5876 5875 5875 5874 5874 5873 5872 5871 5871 5870 5869 5868 5867 5865 5864 5863 5862 5862 5861 5860 5860 5859 5858 5857 5857 5856 5856 5855 5855 5855 5854 5854 5854 5854 5853 5853 5852 5852 5852 5851 5851 5850 5850 5849 5849 5848 5848 5848 5848
5874 5875 5873 5873 5872 5872 5871 5870 5869 5868 5867 5866 5864 5864 5862 5861 5860 5859 5858 5857 5857 5856 5855 5854 5853 5853 5852 5852 5851 5851 5851 5850 5850 5850 5849 5849 5849 5848 5848 5847 5847 5846 5846 5845 5845 5844 5844 5844 5843
5872 5873 5872 5871 5871 5870 5869 5868 5867 5866 5864 5863 5862 5861 5860 5858 5857 5856 5855 5854 5853 5853 5852 5851 5850 5849 5849 5848 5848 5847 5847 5846 5846 5845 5845 5845 5844 5844 5843 5843 5842 5842 5841 5840 5840 5839 5839 5839 5838
5870 5870 5870 5869 5868 5867 5866 5865 5864 5863 5862 5861 5859 5858 5857 5855 5854 5853 5852 5851 5850 5849 5848 5847 5846 5845 5845 5844 5843 5843 5842 5842 5841 5841 5840 5840 5839 5839 5838 5838 5837 5836 5836 5835 5835 5834 5833 5833 5832
5867 5867 5867 5866 5866 5865 5863 5862 5861 5860 5859 5858 5856 5855 5853 5852 5851 5850 5848 5847 5847 5846 5844 5843 5842 5841 5841 5840 5839 5838 5838 5837 5836 5836 5835 5834 5834 5833 5832 5832 5831 5830 5830 5829 5828 5828 5827 5826 5826
5864 5864 5864 5863 5863 5862 5860 5859 5858 5857 5856 5854 5853 5851 5850 5849 5847 5846 5845 5844 5843 5841 5841 5839 5838 5837 5836 5835 5834 5833 5833 5832 5831 5830 5829 5829 5828 5827 5826 5825 5825 5824 5823 5822 5821 5821 5820 5819 5818
5861 5861 5861 5860 5859 5858 5857 5856 5855 5854 5852 5851 5849 5848 5846 5845 5844 5842 5841 5840 5838 5837 5836 5835 5834 5833 5832 5831 5829 5828 5827 5826 5825 5824 5823 5822 5821 5820 5819 5818 5817 5816 5815 5814 5813 5813 5812 5811 5810
5858 5858 5858 5857 5856 5855 5854 5852 5851 5850 5849 5847 5846 5845 5843 5842 5840 5839 5837 5836 5834 5833 5832 5830 5829 5828 5827 5825 5824 5823 5822 5820 5819 5818 5817 5816 5814 5813 5812 5811 5809 5808 5807 5806 5805 5804 5803 5801 5800
5855 5855 5855 5854 5853 5851 5851 5849 5848 5846 5845 5843 5842 5841 5839 5838 5836 5835 5833 5831 5830 5828 5827 5826 5824 5823 5822 5820 5819 5817 5816 5814 5813 5812 5810 5809 5807 5806 5804 5803 5801 5800 5798 5797 5796 5794 5793 5791 5790
5852 5852 5852 5851 5850 5848 5848 5846 5844 5842 5841 5839 5838 5837 5835 5834 5832 5831 5829 5827 5826 5824 5823 5821 5819 5818 5816 5815 5813 5812 5810 5808 5807 5805 5803 5802 5800 5798 5797 5795 5793 5791 5789 5788 5786 5784 5783 5781 5779
5849 5849 5848 5848 5846 5844 5843 5841 5840 5839 5837 5836 5834 5833 5831 5830 5829 5827 5825 5823 5822 5820 5818 5816 5815 5813 5811 5809 5808 5806 5804 5802 5800 5798 5796 5795 5793 5791 5789 5787 5784 5782 5780 5778 5776 5774 5771 5770 5768
5847 5846 5845 5844 5843 5841 5839 5837 5836 5835 5833 5832 5830 5829 5827 5826 5825 5823 5821 5819 5817 5815 5814 5812 5810 5808 5806 5804 5802 5800 5798 5796 5794 5791 5789 5787 5785 5782 5780 5778 5775 5772 5770 5768 5765 5762 5760 5758 5755
5843 5842 5842 5841 5839 5838 5835 5834 5832 5831 5829 5828 5826 5825 5824 5822 5820 5819 5817 5815 5813 5811 5809 5807 5805 5803 5800 5798 5796 5794 5792 5789 5787 5784 5782 5779 5776 5774 5771 5768 5765 5762 5760 5757 5754 5750 5748 5745 5742
5839 5839 5838 5837 5836 5834 5832 5830 5829 5827 5826 5824 5823 5821 5819 5818 5816 5814 5812 5810 5808 5806 5804 5802 5800 5797 5795 5792 5790 5787 5785 5782 5780 5777 5774 5771 5767 5764 5761 5758 5755 5751 5748 5745 5741 5737 5734 5731 5727
5836 5835 5834 5834 5832 5830 5829 5827 5825 5823 5822 5820 5818 5817 5815 5813 5811 5809 5807 5805 5803 5801 5799 5796 5794 5791 5789 5786 5784 5781 5778 5775 5772 5768 5765 5761 5758 5754 5750 5747 5743 5739 5736 5732 5728 5723 5720 5716 5712
5832 5831 5831 5830 5828 5827 5826 5824 5822 5819 5818 5816 5814 5812 5810 5808 5806 5804 5802 5800 5797 5795 5793 5790 5788 5785 5782 5780 5777 5773 5770 5767 5763 5759 5756 5751 5747 5743 5739 5735 5731 5726 5722 5718 5713 5709 5704 5700 5696
5828 5827 5827 5825 5824 5823 5822 5820 5819 5815 5814 5812 5810 5807 5805 5804 5801 5799 5796 5794 5792 5789 5787 5784 5781 5778 5775 5772 5769 5765 5762 5758 5754 5750 5746 5741 5737 5732 5727 5722 5717 5712 5708 5703 5698 5692 5687 5682 5678
5823 5823 5822 5821 5820 5819 5817 5816 5814 5811 5809 5807 5805 5802 5800 5798 5796 5793 5790 5788 5786 5783 5780 5777 5774 5771 5767 5764 5760 5756 5752 5748 5744 5740 5735 5730 5725 5720 5714 5708 5703 5697 5692 5686 5680 5674 5668 5662 5657
5819 5819 5818 5817 5816 5815 5813 5811 5810 5807 5804 5802 5799 5797 5794 5792 5790 5787 5784 5781 5779 5776 5773 5769 5766 5762 5759 5755 5751 5747 5742 5738 5733 5728 5723 5717 5712 5706 5700 5693 5687 5680 5674 5667 5661 5654 5648 5641 5634
5814 5814 5814 5812 5811 5810 5807 5806 5805 5801 5798 5796 5794 5791 5788 5786 5783 5780 5777 5774 5771 5768 5765 5761 5757 5753 5749 5745 5741 5736 5731 5726 5721 5715 5709 5703 5697 5690 5683 5676 5669 5662 5654 5647 5639 5632 5625 5617 5610
5809 5809 5808 5807 5805 5804 5802 5801 5799 5795 5793 5790 5788 5785 5782 5779 5776 5773 5770 5767 5763 5760 5756 5752 5748 5744 5739 5734 5729 5724 5718 5713 5707 5700 5693 5687 5680 5673 5665 5657 5649 5641 5633 5624 5615 5608 5600 5592 5585
5804 5803 5802 5800 5799 5798 5797 5795 5793 5789 5786 5784 5781 5778 5775 5772 5769 5765 5762 5758 5755 5751 5747 5742 5738 5733 5728 5722 5717 5711 5704 5698 5691 5684 5677 5669 5661 5653 5645 5637 5628 5618 5609 5599 5590 5582 5574 5566 5559
5798 5798 5796 5794 5793 5791 5789 5791 5786 5782 5779 5776 5774 5770 5767 5764 5761 5757 5753 5749 5745 5741 5737 5732 5727 5721 5716 5710 5703 5697 5690 5682 5674 5666 5658 5650 5641 5632 5623 5614 5605 5595 5585 5575 5566 5557 5549 5541 5533
5792 5791 5790 5789 5786 5784 5782 5785 5779 5774 5771 5768 5766 5762 5759 5756 5752 5748 5744 5740 5736 5731 5726 5720 5715 5709 5703 5696 5689 5682 5674 5666 5657 5649 5640 5630 5621 5611 5602 5592 5582 5572 5562 5552 5542 5534 5525 5516 5509